Social login voor leden:
METAR EBOS 200620Z 08006KT CAVOK M05/M07 Q1014 NOSIG
TAF EBOS 200500Z 2006/2112 07006KT CAVOK PROB30 TEMPO 2104/2107 3000 BR MIFG

Sonaca 200, onze nieuwe parel van Belgische makelij!

In maart 2019 nemen wij ons eerste gloednieuw toestel van het type Sonaca 200 in gebruik! Dit is een volgende stap in het strategisch plan om onze vloot te vernieuwen. Dit toestel is van Belgische makelij en oogt niet alleen zeer mooi, maar is ook zeer performant. Het toestel zal enerzijds gebruikt worden als lestoestel, maar wordt anderzijds ook ter beschikking gesteld van onze leden. Wil je ook vliegen op de Sonaca 200? Aarzel niet om ons te contacteren om lid te worden!

 

Opleiding Piloot
Meevliegen
Visit Us
Agenda
Opleiding Piloot
Doopvluchten
Visit Us
Volgende activiteit
Noordzee Vliegclub - Nieuwpoortsesteenweg 947 8400 Oostende - Tel 059 30 04 79 - Dit e-mailadres wordt beveiligd tegen spambots. JavaScript dient ingeschakeld te zijn om het te bekijken.

 - Copyright 2017 ©